Flag for Spain Weather past 2 weeks in Almería, Spain

Now
83 °F

Warm.


Feels Like: 88 °F
Forecast: 72 / 84 °F
Wind: 14 mph from Southwest

Location: Almeria / Aeropuerto

Current Time: Jul 29, 2014 at 3:45:32 PM

Latest Report: Jul 29, 2014 at 3:00 PM


Visibility: N/A

Pressure: 29.88 "Hg

Humidity: 71%

Dew point: 72 °F

Location of AlmeríaLocation

Historic Weather in Almería — Graph

°F

Almería temperature yesterday

Maximum temperature yesterday: 82 °F (at 7:00 PM)
Minimum temperature yesterday: 75 °F (at 7:00 AM)
Average temperature yesterday: 79 °F

Past Weeks' High & Low Weather Summary

 TemperatureHumidityPressure
High100 °F (Jul 16, 3:00 PM)88% (Jul 29, 7:00 AM)30.06 "Hg (Jul 29, 7:00 AM)
Low70 °F (Jul 21, 4:00 AM)20% (Jul 21, 11:00 AM)29.78 "Hg (Jul 24, 8:00 PM)
Average81 °F64%29.94 "Hg
* Reported Jul 14 2:00 PM — Jul 29 2:00 PM, Almería, Weather by CustomWeather, © 2014

Note: Actual official high and low records may vary slightly from our data, if they occured in-between our weather recording intervals... More about our weather records

Advertising

Almería weather history for previous 24 hours

 ConditionsComfort  
Time TempWeatherWind HumidityBarometerVisibility
2:00 PM
Jul 29
83 °FPassing clouds.15 mph70%29.89 "Hg16 mi
1:00 PM83 °FWarm.15 mph71%29.89 "HgN/A
12:00 PM81 °FWarm.12 mph73%29.88 "HgN/A
11:00 AM80 °FWarm.9 mph76%29.88 "HgN/A
10:00 AM78 °FWarm.6 mph80%29.87 "HgN/A
9:00 AM78 °FWarm.2 mph80%29.86 "HgN/A
8:00 AM74 °FPassing clouds.6 mph88%29.84 "Hg9 mi
7:00 AM73 °FMild.10 mph88%29.82 "HgN/A
6:00 AM72 °FMild.5 mph85%29.80 "HgN/A
5:00 AM74 °FPassing clouds.No wind84%29.80 "Hg16 mi
4:00 AM74 °FMild.No wind82%29.80 "HgN/A
3:00 AM75 °FMild.2 mph83%29.81 "HgN/A
2:00 AM76 °FMild.6 mph81%29.82 "HgN/A
1:00 AM77 °FMild.6 mph78%29.83 "HgN/A
12:00 AM78 °FWarm.8 mph76%29.83 "HgN/A
11:00 PM
Jul 28
78 °FWarm.9 mph75%29.83 "HgN/A
10:00 PM79 °FWarm.10 mph77%29.82 "HgN/A
9:00 PM78 °FWarm.10 mph79%29.82 "HgN/A
8:00 PM81 °FPassing clouds.10 mph70%29.82 "Hg16 mi
7:00 PM82 °FWarm.12 mph66%29.83 "HgN/A
6:00 PM81 °FWarm.13 mph68%29.85 "HgN/A
5:00 PM82 °FPassing clouds.14 mph68%29.88 "Hg25 mi
4:00 PM81 °FWarm.16 mph70%29.90 "HgN/A
3:00 PM81 °FWarm.12 mph72%29.92 "HgN/A
Weather by CustomWeather, © 2014

See weather overviewHow to use our weather pages